THORAD AGENA D DEB, 42534

Orbit data source: Space-Track

THORAD AGENA D DEB, 42534 is space debris in SSO originally from a launch on Wed, 08 Apr 1970 UTC launched from the Air Force Western Test Range (AFWTR). Debris objects in space refer to the collection of defunct objects orbiting the Earth. Examples of debris include non-operational satellites, rocket bodies, and fragments generated from explosions, collisions, or faulty payload assembly.

Loading next visibility...
Identifier
42534, 1970-025SQ
Orbit
SSO
Last TLE update
3 days ago
Origin
Manufacturer
Unknown
Mission
Spacecraft
Bus & Motor
Unknown
Mass
Unknown
Launch date (UTC)
1970-04-08 (55 years ago)
Launch vehicle
Unknown
Launch site
Air Force Western Test Range (AFWTR)
Object type
Payload
Rocket body
Debris
Shape & HBR
Unknown
Radar Cross Section
Small (<0.1 m²)

Expand to show TLE details & history

TLE from 3 days ago
0 THORAD AGENA D DEB
1 42534U 70025SQ  25180.15842439 -.00000236  00000-0 -60715-3 0  9999
2 42534 101.7411 256.9224 0195160 109.8718 252.3524 12.95485221542611
Epoch: 2025-06-29T03:48Z
TLE epoch observation values (Epoch: 2025-06-29T03:48:07.867Z)
Latitude
-0.00004°
Longitude
-77.59697°
Altitude
1,330.409 km
Speed
7.17 km/s
True Right ascension
17h 07m 41s
True Declination
0° 00' 00"
Sunlit
Object was in full shadow at epoch
Visualization orbit readout
Latitude
35.22425°
Longitude
-82.68342°
Altitude
1,224.385 km
Speed
7.274 km/s
Apparent Right ascension
14h 02m 55s
Apparent Declination
8° 25' 13"
Sunlit
Object is in daylight
Visualization observer readout
Local Sidereal Time
17:49:05
Azimuth
253.937° W
Elevation
30.814°
Doppler factor
1
Orbital elements
Apogee altitude
1,426.72 km
Perigee altitude
1,127.912 km
Semi-major axis
7,655.453 km
Eccentricity
0.01952
Inclination
101.7411°
RAAN
256.9224°
Arg. of periapsis
109.8718°
True anomaly
Unknown
Mean anomaly
252.3524°
Eccentric anomaly
Unknown
Mean motion
3.24031 °/min
Orbital period
111.1 mins
BSTAR
-0.00060715
Loading maneuver chart data...
Loading SW <> Apogee altitude chart data...

THORAD AGENA D DEB Visibility forecast

Observer location: undefined°, undefined°

Span
Click to sort rows by Start time (UTC) header in descending order
Start Az.
Max El. time (UTC)
Max El. Az.
Max El.
End time (UTC)
End Az.
6 mins2025-07-02 06:07:24.384Z253.601° W2025-07-02 06:07:24.384Z253.601° W27.021°2025-07-02 06:13:24.384Z318.439° NNW
12 mins2025-07-02 17:40:24.384Z30.106° NE2025-07-02 17:46:24.384Z117.234° SE38.551°2025-07-02 17:52:24.384Z178.875° S
10 mins2025-07-02 19:30:24.384Z349.743° N2025-07-02 19:34:24.384Z307.065° NW25.267°2025-07-02 19:40:24.384Z245.725° WSW
12 mins2025-07-03 04:18:24.384Z136.919° SSE2025-07-03 04:24:24.384Z56.734° ENE38.62°2025-07-03 04:30:24.384Z352.977° N
|